Location: Binningen
(47.7924°N, 8.7261°E)
Time: 09:03:41
(UTC+00:00)

Cosmos 967 Rocket - Pass Details

Date: 17 May 2021
Orbit: 953 x 985 km, 65.8° (Epoch: 15 June)

Event Time Altitude Azimuth Distance (km) Brightness Sun altitude
Rises 20:29:32 0° 203° (SSW) 3,614 7.2 -12.4°
Reaches altitude 10° 20:32:04 10° 200° (SSW) 2,672 6.5 -12.7°
Maximum altitude 20:38:14 64° 120° (ESE) 1,048 4.4 -13.4°
Drops below altitude 10° 20:44:26 10° 41° (NE) 2,696 7.0 -14.0°
Sets 20:47:01 0° 38° (NE) 3,649 7.7 -14.3°
